Weather History for Indianapolis, IN

Change the Weather History Date:

Wednesday, March 20, 2013

  Actual Average (KEYE) Record (KEYE)
Temperature  
Mean Temperature 27 °F 44 °F  
Max Temperature 32 °F 53 °F 83 °F (2012)
Min Temperature 22 °F 35 °F 22 °F (2013)
Degree Days  
Heating Degree Days 38 21  
Month to date heating degree days 492  
Since 1 July heating degree days 4617  
Cooling Degree Days 0 0  
Month to date cooling degree days 0  
Year to date cooling degree days 0  
Moisture  
Dew Point 12 °F    
Average Humidity 54    
Maximum Humidity 71    
Minimum Humidity 40    
Precipitation  
Precipitation 0.00 in 0.13 in 0.96 in (1998)
Month to date precipitation 1.82  
Year to date precipitation 6.16  
Sea Level Pressure  
Sea Level Pressure 30.04 in    
Wind  
Wind Speed 12 mph (WNW)    
Max Wind Speed 23 mph    
Max Gust Speed 32 mph    
Visibility 10 miles    
Events Snow    
T = Trace of Precipitation, MM = Missing Value Source: NWS Daily Summary

Daily Weather History Graph

Daily Weather History Graph

Search for Another Location

Airport:

Trip Planner

Search our weather history database for the weather conditions in past years. The results will help you decide how hot, cold, wet, or windy it might be!

Date:

Astronomy

Mar. 20, 2013 Rise Set
Actual Time 7:48 AM EDT 7:57 PM EDT
Civil Twilight 7:21 AM EDT 8:24 PM EDT
Nautical Twilight 6:49 AM EDT 8:56 PM EDT
Astronomical Twilight 6:17 AM EDT 9:28 PM EDT
Moon 1:32 PM EDT (3/20) 3:27 AM EDT (3/20)
Length of Visible Light 13h 03m
Length of Day
12h 09m
First Quarter, 59% of the Moon is Illuminated
Mar 20
First Quarter
Mar 27
Full
Apr 3
Last Quarter
Apr 10
New
Apr 18
First Quarter

Hourly Weather History & Observations

Time (EDT) Temp. Windchill Dew Point Humidity Pressure Visibility Wind Dir Wind Speed Gust Speed Precip Events Conditions
12:15 AM 32.2 °F 23.2 °F 16.3 °F 52% 30.10 in 10.0 mi West 11.5 mph - N/A   Clear
12:35 AM 32.5 °F 22.7 °F 15.4 °F 49% 30.10 in 10.0 mi West 13.8 mph 19.6 mph N/A   Clear
12:55 AM 32.0 °F 22.5 °F 15.8 °F 51% 30.09 in 10.0 mi West 12.7 mph 19.6 mph N/A   Clear
1:35 AM 31.8 °F 22.8 °F 15.8 °F 52% 30.08 in 10.0 mi West 11.5 mph 19.6 mph N/A   Clear
1:55 AM 31.3 °F 23.3 °F 16.0 °F 53% 30.08 in 10.0 mi West 9.2 mph - N/A   Clear
2:15 AM 31.1 °F 23.7 °F 16.3 °F 54% 30.08 in 10.0 mi West 8.1 mph - N/A   Clear
2:35 AM 30.4 °F 22.9 °F 16.2 °F 56% 30.08 in 10.0 mi West 8.1 mph - N/A   Clear
2:55 AM 30.0 °F 23.2 °F 15.8 °F 56% 30.07 in 10.0 mi West 6.9 mph - N/A   Clear
3:15 AM 29.1 °F 22.1 °F 15.8 °F 58% 30.06 in 10.0 mi West 6.9 mph - N/A   Clear
3:35 AM 28.9 °F 21.9 °F 15.8 °F 58% 30.06 in 10.0 mi West 6.9 mph - N/A   Clear
3:55 AM 28.4 °F 23.3 °F 15.6 °F 59% 30.06 in 10.0 mi West 4.6 mph - N/A   Clear
4:15 AM 28.2 °F 22.0 °F 15.6 °F 59% 30.05 in 10.0 mi West 5.8 mph - N/A   Clear
4:35 AM 27.5 °F 21.1 °F 16.2 °F 62% 30.04 in 10.0 mi West 5.8 mph - N/A   Clear
4:55 AM 27.5 °F 20.2 °F 16.3 °F 63% 30.03 in 10.0 mi West 6.9 mph - N/A   Clear
5:15 AM 27.3 °F 19.1 °F 16.7 °F 64% 30.03 in 10.0 mi West 8.1 mph - N/A   Clear
5:35 AM 27.5 °F 18.6 °F 16.3 °F 63% 30.02 in 10.0 mi West 9.2 mph - N/A   Clear
5:55 AM 27.1 °F 18.9 °F 15.8 °F 62% 30.03 in 10.0 mi WNW 8.1 mph - N/A   Clear
6:15 AM 26.6 °F 17.5 °F 16.5 °F 66% 30.02 in 10.0 mi West 9.2 mph 16.1 mph N/A   Clear
6:55 AM 26.4 °F 16.0 °F 16.2 °F 65% 30.03 in 10.0 mi WNW 11.5 mph 16.1 mph N/A   Mostly Cloudy
7:15 AM 25.7 °F 17.1 °F 16.2 °F 67% 30.03 in 10.0 mi WNW 8.1 mph - N/A   Scattered Clouds
7:35 AM 25.3 °F 14.1 °F 16.7 °F 70% 30.04 in 10.0 mi WNW 12.7 mph 16.1 mph N/A   Scattered Clouds
7:55 AM 25.3 °F 16.0 °F 16.5 °F 69% 30.04 in 10.0 mi WNW 9.2 mph - N/A   Mostly Cloudy
8:15 AM 25.3 °F 16.7 °F 17.1 °F 71% 30.05 in 10.0 mi WNW 8.1 mph - N/A   Overcast
8:35 AM 25.5 °F 13.3 °F 16.7 °F 69% 30.05 in 10.0 mi WNW 15.0 mph 23.0 mph N/A   Mostly Cloudy
8:55 AM 25.7 °F 14.6 °F 16.5 °F 68% 30.06 in 10.0 mi WNW 12.7 mph 24.2 mph N/A   Mostly Cloudy
9:15 AM 26.1 °F 15.0 °F 16.3 °F 67% 30.05 in 10.0 mi WNW 12.7 mph 21.9 mph N/A   Overcast
9:35 AM 26.1 °F 14.5 °F 15.8 °F 65% 30.05 in 10.0 mi WNW 13.8 mph 24.2 mph N/A   Mostly Cloudy
9:55 AM 26.4 °F 14.0 °F 16.2 °F 65% 30.05 in 10.0 mi West 16.1 mph 25.3 mph N/A   Scattered Clouds
10:15 AM 26.4 °F 14.0 °F 14.4 °F 60% 30.06 in 10.0 mi West 16.1 mph 25.3 mph N/A   Mostly Cloudy
10:35 AM 26.4 °F 14.0 °F 14.0 °F 59% 30.06 in 10.0 mi West 16.1 mph 23.0 mph N/A   Mostly Cloudy
10:55 AM 25.7 °F 13.5 °F 14.0 °F 61% 30.06 in 10.0 mi West 15.0 mph 26.5 mph N/A   Overcast
11:15 AM 25.7 °F 13.5 °F 13.8 °F 61% 30.06 in 10.0 mi West 15.0 mph 23.0 mph N/A   Overcast
11:35 AM 26.8 °F 15.9 °F 13.8 °F 58% 30.07 in 10.0 mi West 12.7 mph 24.2 mph N/A   Overcast
11:55 AM 25.9 °F 13.3 °F 11.8 °F 55% 30.07 in 10.0 mi West 16.1 mph 25.3 mph N/A   Mostly Cloudy
12:15 PM 26.2 °F 13.8 °F 12.2 °F 55% 30.07 in 10.0 mi West 16.1 mph 25.3 mph N/A   Mostly Cloudy
12:35 PM 26.4 °F 13.6 °F 11.1 °F 53% 30.07 in 10.0 mi West 17.3 mph 23.0 mph N/A   Mostly Cloudy
12:55 PM 27.3 °F 15.2 °F 9.7 °F 48% 30.07 in 10.0 mi West 16.1 mph 24.2 mph N/A   Scattered Clouds
1:15 PM 27.1 °F 14.5 °F 12.0 °F 53% 30.06 in 10.0 mi West 17.3 mph 26.5 mph N/A   Scattered Clouds
1:55 PM 28.9 °F 16.5 °F 10.4 °F 46% 30.06 in 10.0 mi West 18.4 mph 24.2 mph N/A   Scattered Clouds
2:15 PM 28.9 °F 16.1 °F 10.4 °F 46% 30.05 in 10.0 mi West 19.6 mph 25.3 mph N/A   Mostly Cloudy
2:35 PM 29.3 °F 17.0 °F 10.0 °F 45% 30.05 in 10.0 mi West 18.4 mph 27.6 mph N/A   Mostly Cloudy
2:55 PM 29.3 °F 16.6 °F 9.5 °F 44% 30.04 in 10.0 mi West 19.6 mph 26.5 mph N/A   Mostly Cloudy
3:15 PM 28.8 °F 16.6 °F 9.0 °F 43% 30.03 in 10.0 mi WNW 17.3 mph 27.6 mph N/A   Scattered Clouds
3:35 PM 30.0 °F 16.6 °F 9.5 °F 42% 30.02 in 10.0 mi West 23.0 mph 31.1 mph N/A   Mostly Cloudy
3:55 PM 27.7 °F 14.8 °F 9.1 °F 46% 30.02 in 10.0 mi WNW 18.4 mph 27.6 mph N/A   Overcast
4:15 PM 27.0 °F 13.2 °F 8.1 °F 45% 30.03 in 10.0 mi West 20.7 mph 28.8 mph N/A   Overcast
4:35 PM 27.1 °F 12.7 °F 8.2 °F 45% 30.03 in 10.0 mi West 23.0 mph 32.2 mph N/A   Overcast
4:55 PM 28.2 °F 15.2 °F 7.9 °F 42% 30.02 in 10.0 mi West 19.6 mph 29.9 mph N/A   Overcast
5:15 PM 27.5 °F 16.3 °F 7.7 °F 43% 30.02 in 10.0 mi WNW 13.8 mph 24.2 mph N/A   Overcast
5:35 PM 27.0 °F 13.9 °F 7.7 °F 44% 30.02 in 10.0 mi WNW 18.4 mph 28.8 mph N/A   Overcast
5:55 PM 27.3 °F 16.1 °F 7.9 °F 44% 30.02 in 10.0 mi WNW 13.8 mph 24.2 mph N/A   Mostly Cloudy
6:15 PM 27.5 °F 16.8 °F 7.7 °F 43% 30.02 in 10.0 mi WNW 12.7 mph 28.8 mph N/A   Mostly Cloudy
6:35 PM 27.5 °F 15.4 °F 6.1 °F 40% 30.02 in 10.0 mi West 16.1 mph 26.5 mph N/A   Mostly Cloudy
6:55 PM 27.3 °F 14.4 °F 7.5 °F 43% 30.02 in 10.0 mi West 18.4 mph 26.5 mph N/A   Mostly Cloudy
7:15 PM 26.4 °F 13.6 °F 7.5 °F 45% 30.02 in 10.0 mi WNW 17.3 mph 26.5 mph N/A   Mostly Cloudy
7:35 PM 26.2 °F 14.2 °F 7.0 °F 44% 30.02 in 10.0 mi WNW 15.0 mph 20.7 mph N/A   Mostly Cloudy
7:55 PM 25.7 °F 12.3 °F 6.4 °F 44% 30.02 in 10.0 mi West 18.4 mph 28.8 mph N/A   Mostly Cloudy
8:15 PM 25.7 °F 13.5 °F 6.6 °F 44% 30.02 in 10.0 mi WNW 15.0 mph 25.3 mph N/A   Mostly Cloudy
8:35 PM 25.2 °F 15.1 °F 7.2 °F 46% 30.02 in 10.0 mi WNW 10.4 mph 18.4 mph N/A   Mostly Cloudy
8:55 PM 25.2 °F 14.4 °F 6.8 °F 46% 30.02 in 10.0 mi WNW 11.5 mph 19.6 mph N/A   Mostly Cloudy
9:15 PM 24.8 °F 11.9 °F 8.2 °F 49% 30.02 in 10.0 mi NW 16.1 mph 21.9 mph N/A   Scattered Clouds
9:35 PM 24.1 °F 14.4 °F 8.6 °F 52% 30.02 in 10.0 mi WNW 9.2 mph 21.9 mph N/A   Scattered Clouds
9:55 PM 23.9 °F 15.0 °F 9.3 °F 54% 30.02 in 10.0 mi NW 8.1 mph - N/A   Scattered Clouds
10:15 PM 23.5 °F 12.4 °F 10.0 °F 56% 30.02 in 10.0 mi WNW 11.5 mph 17.3 mph N/A   Scattered Clouds
10:35 PM 23.2 °F 10.8 °F 9.7 °F 56% 30.02 in 10.0 mi WNW 13.8 mph 19.6 mph N/A   Clear
10:55 PM 22.8 °F 13.6 °F 10.2 °F 59% 30.02 in 10.0 mi WNW 8.1 mph 16.1 mph N/A   Scattered Clouds
11:15 PM 22.8 °F 10.9 °F 11.5 °F 62% 30.01 in 10.0 mi WNW 12.7 mph - N/A   Scattered Clouds
11:35 PM 23.0 °F 9.6 °F 11.3 °F 61% 30.01 in 10.0 mi NW 16.1 mph 23.0 mph N/A Snow Light Snow
11:55 PM 23.0 °F 11.1 °F 10.6 °F 59% 30.02 in 10.0 mi WNW 12.7 mph 19.6 mph N/A   Overcast